Location: Casilda
(33.0440°S, 61.1680°W)
Time: 17:11:17
(UTC-03:00)

ISS - Pass Details

Date: 02 March 2021
Orbit: 417 x 422 km, 51.6° (Epoch: 27 February)

Event Time Altitude Azimuth Distance (km) Brightness Sun altitude
Rises 21:08:41 0° 215° (SW) 2,402 1.1 -19.0°
Reaches altitude 10° 21:11:04 10° 201° (SSW) 1,529 -0.3 -19.5°
Enters shadow 21:13:37 24° 154° (SSE) 942 -2.1 -20.0°
